CZ-6A DEB

基本信息
目录编号:
54277
目录名称:
CZ-6A DEB
国际标识:
2022-151U
轨道中心:
EARTH
物体状态:
在轨
发射日期:
2022-11-11 UTC
轨道信息
数据来源: 国际轨道数据
星历时间: 2026-09-05T08:01:32+0800
半长轴: 7206.924km
偏心率: 0.0046896
轨道倾角: 98.821°
近地点辐角: 326.738°
升交点赤经: 272.616°
平近点角: 33.085°
近地点: 794.989km
远地点: 862.585km
周期: 101.481分钟
每日圈数: 14.189853
详细信息
发射场:
TSC
轨道高度:
LEO
数据来源:
AOE Integration Group
参考系:
TEME
时间系统:
UTC
历元类型:
SGP4
2D轨道图
3D轨道图
轨道高度分析图
轨道倾角分析图
轨道综合分析图
查看轨道综合分析图